軌道要素
Epoch 2010 Sept. 1.0 TT = JDT 2455440.5
T 2010 Aug. 14.51767 TT MPC
q 2.4200690 (2000.0) P Q
n 0.11657960 Peri. 37.84792 +0.89340455 -0.43712667
a 4.1500597 Node 346.82455 +0.21199182 +0.61366121
e 0.4168592 Incl. 27.05520 +0.39609062 +0.65752581
P 8.45
From 297 observations 2001 July 27-2010 Dec. 15, mean residual 0".5.
|